User: anonymous   Login
Location: Unspecified
(0.0000°N, 0.0000°E)
Time: 11:13:28
(UTC+02:00)
Language:

NOAA 12 - Orbit

View from above orbital plane
View from above orbital plane
View from above satellite
View from above satellite

Ground track
Ground track

The orbit data is extracted from the following two-line orbital elements,

1 21263U 91032A   17083.94843944 +.00000008 +00000-0 +21439-4 0  9994
2 21263 098.5716 109.8591 0014131 163.4751 196.6892 14.25837379344463
Epoch (UTC): 24 March 2017 22:45:45
Eccentricity: 0.0014131
inclination: 98.5716°
perigee height: 795 km
apogee height: 816 km
right ascension of ascending node: 109.8591°
argument of perigee: 163.4751°
revolutions per day: 14.25837379
mean anomaly at epoch: 196.6892°
orbit number at epoch: 34446

The dashed part of the orbit path shows where the satellite is in the earth's shadow,  

DLR